Flag for Brazil Weather past 2 weeks in Bauru, São Paulo, Brazil

Now
75 °F

Sunny.


Feels Like: 78 °F
Forecast: 62 / 87 °F
Wind: 8 mph from East

Location: Leite Lopes / Ribeir

Current Time: Oct 23, 2014 at 10:00:53 AM

Latest Report: Oct 23, 2014 at 9:00 AM


Visibility: 10 mi

Pressure: 30.12 "Hg

Humidity: 57%

Dew point: 59 °F

Location of BauruLocation

Historic Weather in Bauru — Graph

°F

Bauru temperature yesterday

Maximum temperature yesterday: 95 °F (at 4:00 PM)
Minimum temperature yesterday: 66 °F (at 2:00 AM)
Average temperature yesterday: 80 °F

Past Weeks' High & Low Weather Summary

 TemperatureHumidityPressure
High104 °F (Oct 14, 4:00 PM)73% (Oct 21, 5:00 AM)30.12 "Hg (Oct 21, 5:00 AM)
Low63 °F (Oct 9, 5:00 AM)11% (Oct 15, 3:00 PM)29.77 "Hg (Oct 18, 4:00 PM)
Average84 °F35%29.96 "Hg
* Reported Oct 8 8:00 AM — Oct 23 9:00 AM, Bauru, Weather by CustomWeather, © 2014

Note: Actual official high and low records may vary slightly from our data, if they occured in-between our weather recording intervals... More about our weather records

Advertising

Bauru weather history for previous 24 hours

 ConditionsComfort  
Time TempWeatherWind HumidityBarometerVisibility
9:00 AM
Oct 23
75 °FSunny.8 mph57%30.12 "Hg10 mi
8:00 AM72 °FSunny.7 mph65%30.09 "Hg10 mi
7:00 AM68 °FPassing clouds.3 mph69%30.07 "HgN/A
6:00 AM68 °FClear.3 mph69%30.04 "Hg10 mi
5:00 AM70 °FClear.7 mph64%30.04 "Hg10 mi
4:00 AM72 °FClear.8 mph65%30.04 "Hg10 mi
3:00 AM73 °FPassing clouds.7 mph61%30.04 "HgN/A
2:00 AM73 °FClear.14 mph61%30.01 "Hg10 mi
1:00 AM75 °FClear.13 mph54%30.04 "Hg10 mi
12:00 AM75 °FClear.14 mph54%30.04 "Hg10 mi
11:00 PM
Oct 22
81 °FClear.12 mph45%30.01 "Hg10 mi
10:00 PM82 °FClear.6 mph45%30.01 "Hg10 mi
9:00 PM82 °FPassing clouds.8 mph45%29.98 "HgN/A
8:00 PM84 °FPassing clouds.13 mph43%29.95 "HgN/A
7:00 PM86 °FScattered clouds.12 mph38%29.92 "HgN/A
6:00 PM90 °FScattered clouds.9 mph31%29.92 "HgN/A
5:00 PM93 °FScattered clouds.6 mph26%29.92 "HgN/A
4:00 PM95 °FScattered clouds.7 mph25%29.92 "HgN/A
3:00 PM91 °FPartly sunny.7 mph30%29.95 "HgN/A
2:00 PM90 °FPartly sunny.6 mph31%29.98 "HgN/A
1:00 PM90 °FScattered clouds.6 mph33%30.04 "HgN/A
12:00 PM86 °FPassing clouds.8 mph38%30.07 "HgN/A
11:00 AM84 °FPassing clouds.9 mph43%30.07 "HgN/A
10:00 AM79 °FPassing clouds.10 mph51%30.09 "HgN/A
Weather by CustomWeather, © 2014

See weather overviewHow to use our weather pages